DateTimeUTC,F1_A11,F1_S11,BsB_S11,BsG_S11,BsR_S11,BbsB_S11,BbsG_S11,BbsR_S11,BaB_A11,BaG_A11,BaR_A11,Tu_S11,T_S11,Uu_S11,U_S11,P_S11,T1_A11
2021-03-22T00:00:00Z,00000200,21000000,,,,,,,-000.40,-000.18,0000.04,16.7,24.5,,00.0,0628.0,31.0
2021-03-22T00:01:00Z,00000200,21000000,,,,,,,-000.22,-000.54,-000.24,16.7,24.5,,00.0,0628.0,31.0
2021-03-22T00:02:00Z,00000200,21000000,,,,,,,0000.06,0000.15,0000.08,16.7,24.5,,00.0,0628.0,31.0
2021-03-22T00:03:00Z,00000200,61000000,,,,,,,-000.21,-000.06,-000.09,16.7,24.5,,00.0,0628.0,31.0
2021-03-22T00:04:00Z,00000200,41000000,0000.44,0000.11,0000.24,0000.08,-000.07,0000.06,0000.04,-000.23,-000.29,16.8,24.2,,00.0,0628.8,31.0
2021-03-22T00:05:00Z,00000200,01000000,0000.50,0000.20,0000.06,-000.37,0000.05,0000.12,0000.51,0000.10,0000.30,16.8,24.1,,00.0,0628.9,31.0
2021-03-22T00:06:00Z,00000200,01000000,0000.37,0000.35,0000.35,0000.29,0000.20,-000.11,-000.10,0000.38,-000.12,16.7,24.1,,00.0,0628.9,31.0
2021-03-22T00:07:00Z,00000200,01000000,0000.25,-000.12,0000.17,-000.13,0000.12,-000.02,0000.27,0000.12,0000.64,16.7,24.1,,00.0,0628.9,31.0
2021-03-22T00:08:00Z,00000200,01000000,0000.60,-000.05,0000.08,-000.24,0000.17,0000.10,0000.49,0000.36,0000.40,16.8,24.1,,00.0,0628.9,31.0
2021-03-22T00:09:00Z,00000200,01000000,0000.63,0000.35,0000.02,0000.42,0000.11,0000.21,0000.05,0000.20,0000.03,16.8,24.1,,00.0,0628.9,31.0
2021-03-22T00:10:00Z,00000200,01000000,0000.01,-000.07,0000.45,0000.06,0000.00,0000.06,0000.10,-000.10,-000.20,16.9,24.1,,00.0,0628.9,31.0
2021-03-22T00:11:00Z,00000200,01000000,0000.10,0000.12,0000.01,0000.23,-000.16,0000.04,-000.04,0000.25,0000.02,16.9,24.1,,00.0,0628.9,31.0
2021-03-22T00:12:00Z,00000200,01000000,0000.96,0000.19,0000.25,0000.14,0000.12,-000.09,-000.05,-000.03,-000.34,16.9,24.1,,00.0,0628.9,31.0
2021-03-22T00:13:00Z,00000200,01000000,0000.03,0000.21,-000.04,0000.12,0000.01,0000.10,-000.30,-000.12,0000.23,17.0,24.2,,00.0,0628.9,31.0
2021-03-22T00:14:00Z,00000200,01000000,0000.71,0000.02,-000.07,-000.01,0000.07,0000.04,0000.08,0000.07,-000.19,16.9,24.1,,00.0,0628.8,31.0
2021-03-22T00:15:00Z,00000200,01000000,-000.05,0000.19,-000.15,0000.06,0000.08,-000.03,0000.06,-000.02,0000.05,16.9,24.1,,00.0,0628.8,31.0
2021-03-22T00:16:00Z,00000200,01000000,-000.14,0000.07,-000.01,-000.18,0000.17,0000.11,-000.18,-000.34,-000.07,16.9,24.1,,00.0,0628.8,30.9
2021-03-22T00:17:00Z,00000200,01000000,0000.27,-000.01,0000.09,-000.46,-000.07,-000.00,0000.23,0000.23,0000.17,16.8,24.1,,00.0,0628.8,31.0
2021-03-22T00:18:00Z,00000200,01000000,0000.71,0000.29,0000.25,-000.32,0000.05,0000.23,0000.13,0000.14,-000.10,16.8,24.1,,00.0,0628.8,31.0
2021-03-22T00:19:00Z,00000200,01000000,0000.63,-000.05,0000.32,0000.10,0000.03,0000.11,0000.08,-000.14,0000.09,16.8,24.0,,00.0,0628.8,30.9
2021-03-22T00:20:00Z,00000200,01000000,0000.15,0000.33,-000.10,0000.19,-000.10,0000.02,-000.10,0000.26,-000.07,16.7,24.0,,00.0,0628.8,30.9
2021-03-22T00:21:00Z,00000200,01000000,0000.13,0000.10,0000.16,0000.02,0000.20,-000.08,0000.29,-000.02,0000.64,16.7,24.0,,00.0,0628.8,30.9
2021-03-22T00:22:00Z,00000200,01000000,-000.28,0000.42,0000.31,-000.45,-000.00,-000.05,0000.23,0000.36,-000.27,16.7,24.0,,00.0,0628.8,30.9
2021-03-22T00:23:00Z,00000200,01000000,0000.47,0000.33,0000.19,0000.14,0000.16,0000.17,0000.35,0000.40,0000.92,16.7,24.0,,00.0,0628.8,31.0
2021-03-22T00:24:00Z,00000200,01000000,-000.16,0000.05,0000.29,0000.23,0000.14,-000.11,-000.28,-000.31,-000.19,16.7,24.0,,00.0,0628.8,31.0
2021-03-22T00:25:00Z,00000200,01000000,0000.03,0000.30,0000.03,-000.38,0000.23,0000.22,0000.28,0000.22,-000.19,16.8,24.0,,00.0,0628.8,31.0
2021-03-22T00:26:00Z,00000200,01000000,0000.37,-000.27,-000.09,-000.09,0000.23,-000.10,0000.04,0000.19,-000.09,16.9,24.0,,00.0,0628.9,31.0
2021-03-22T00:27:00Z,00000200,01000000,0000.18,-000.03,-000.06,0000.01,0000.10,-000.20,-000.04,0000.12,0000.38,16.9,24.1,,00.0,0628.9,31.0
2021-03-22T00:28:00Z,00000200,01000000,0000.68,-000.07,0000.23,-000.03,0000.26,0000.10,0000.18,0000.00,0000.01,17.0,24.1,,00.0,0628.9,31.0
2021-03-22T00:29:00Z,00000200,01000000,0000.54,0000.13,0000.15,-000.20,0000.23,0000.29,0000.07,0000.01,-000.19,17.1,24.1,,00.0,0628.9,31.0
2021-03-22T00:30:00Z,00000200,01000000,-000.40,0000.18,-000.10,0000.23,0000.00,-000.16,-000.36,-000.25,0000.17,17.1,24.2,,00.0,0628.8,31.0
2021-03-22T00:31:00Z,00000200,01000000,0000.08,-000.15,-000.01,-000.43,0000.08,0000.14,0000.40,0000.48,0000.40,17.2,24.2,,00.0,0628.8,31.0
2021-03-22T00:32:00Z,00000200,01000000,-000.16,0000.00,0000.48,-000.10,-000.07,0000.08,0000.38,-000.31,-000.09,17.3,24.2,,00.0,0628.9,31.0
2021-03-22T00:33:00Z,00000200,01000000,-000.10,-000.19,0000.17,-000.47,0000.01,-000.14,0000.06,0000.69,0000.23,17.3,24.3,,00.0,0628.9,31.0
2021-03-22T00:34:00Z,00000200,01000000,0000.46,0000.32,0000.05,-000.23,0000.35,-000.05,-000.09,0000.17,-000.20,17.4,24.3,,00.0,0628.9,31.0
2021-03-22T00:35:00Z,00000200,01000000,0000.83,0000.26,0000.17,0000.08,0000.14,0000.07,0000.20,0000.18,0000.08,17.4,24.3,,00.0,0628.9,31.0
2021-03-22T00:36:00Z,00000200,01000000,0000.48,0000.11,0000.12,0000.19,0000.18,0000.27,-000.24,-000.38,-000.42,17.4,24.4,,00.0,0628.9,31.0
2021-03-22T00:37:00Z,00000200,01000000,0000.54,0000.18,0000.13,0000.20,0000.26,-000.17,-000.10,-000.15,0000.09,17.4,24.3,,00.0,0628.9,31.0
2021-03-22T00:38:00Z,00000200,01000000,-000.31,0000.18,-000.04,0000.19,-000.14,-000.01,0000.37,-000.02,-000.08,17.3,24.3,,00.0,0628.8,31.0
2021-03-22T00:39:00Z,00000200,01000000,0000.58,0000.14,0000.16,0000.36,-000.03,0000.08,-000.19,0000.05,0000.03,17.3,24.3,,00.0,0628.8,31.0
2021-03-22T00:40:00Z,00000200,01000000,-000.21,0000.18,0000.25,0000.02,0000.32,0000.00,0000.35,0000.17,0000.27,17.3,24.3,,00.0,0628.8,31.0
2021-03-22T00:41:00Z,00000200,01000000,0000.65,0000.01,0000.22,0000.12,0000.17,-000.16,-000.25,0000.04,0000.13,17.2,24.2,,00.0,0628.8,31.0
2021-03-22T00:42:00Z,00000200,01000000,-000.19,-000.01,0000.23,-000.11,0000.01,0000.09,0000.41,-000.35,-000.30,17.2,24.3,,00.0,0628.8,31.0
2021-03-22T00:43:00Z,00000200,01000000,0000.27,0000.40,0000.19,-000.19,0000.15,0000.20,-000.25,0000.30,0000.11,17.1,24.2,,00.0,0628.8,31.0
2021-03-22T00:44:00Z,00000200,01000000,0000.68,0000.04,0000.27,0000.25,0000.04,-000.03,-000.05,0000.07,0000.13,17.1,24.2,,00.0,0628.8,31.0
2021-03-22T00:45:00Z,00000200,01000000,0000.46,0000.35,0000.17,0000.14,-000.09,0000.11,-000.01,-000.16,-000.24,17.0,24.2,,00.0,0628.8,31.0
2021-03-22T00:46:00Z,00000200,01000000,0000.63,0000.04,0000.07,-000.00,0000.15,0000.18,0000.31,0000.21,0000.04,17.0,24.1,,00.0,0628.8,31.0
2021-03-22T00:47:00Z,00000200,01000000,0000.80,0000.29,0000.16,-000.01,0000.08,0000.03,-000.08,-000.02,0000.30,16.9,24.1,,00.0,0628.8,31.0
2021-03-22T00:48:00Z,00000200,01000000,0000.30,0000.12,0000.05,-000.01,0000.05,0000.08,0000.01,0000.01,-000.18,16.9,24.1,,00.0,0628.8,30.9
2021-03-22T00:49:00Z,00000200,01000000,0000.25,-000.01,0000.10,-000.06,-000.05,0000.06,0000.02,0000.05,-000.10,16.8,24.1,,00.0,0628.8,30.9
2021-03-22T00:50:00Z,00000200,01000000,0000.40,0000.34,0000.03,-000.16,0000.05,0000.04,-000.17,-000.14,0000.05,16.8,24.1,,00.0,0628.8,30.9
2021-03-22T00:51:00Z,00000200,01000000,-000.36,0000.28,0000.05,0000.48,0000.18,-000.01,0000.94,0000.58,0000.84,16.7,24.0,,00.0,0628.7,30.9
2021-03-22T00:52:00Z,00000200,01000000,0000.23,0000.12,0000.39,0000.11,-000.17,-000.04,-000.47,-000.08,-000.39,16.7,24.0,,00.0,0628.7,30.9
2021-03-22T00:53:00Z,00000200,01000000,0000.37,0000.08,0000.32,-000.34,-000.03,0000.04,0000.13,0000.27,-000.05,16.7,24.0,,00.0,0628.7,30.9
2021-03-22T00:54:00Z,00000200,01000000,0000.62,-000.02,0000.02,-000.08,0000.20,-000.03,0000.36,-000.12,0000.38,16.8,24.0,,00.0,0628.7,31.0
2021-03-22T00:55:00Z,00000200,01000000,0000.20,0000.01,0000.09,-000.05,0000.14,-000.19,-000.04,0000.13,0000.02,16.8,24.0,,00.0,0628.7,31.0
2021-03-22T00:56:00Z,00000200,01000000,-000.05,0000.35,0000.08,-000.44,-000.11,0000.03,-000.03,-000.03,0000.24,16.9,24.0,,00.0,0628.7,31.0
2021-03-22T00:57:00Z,00000200,41000000,,,,,,,0001.04,0001.10,0000.64,16.9,24.1,,00.0,0628.7,31.0
2021-03-22T00:58:00Z,00000200,61000000,,,,,,,-000.59,-000.53,-000.81,16.6,24.2,,00.0,0627.7,31.0
2021-03-22T00:59:00Z,00000200,21000000,,,,,,,-000.13,-000.23,0000.19,16.5,24.3,,00.0,0627.7,31.0
